Cairns, Australia

12:05 AM AEST on March 28, 2017 (GMT +1000)
Cairns International

Weather History for YBCS - April, 2013

Change the Weather History Date:

Tuesday, April 30, 2013

  Actual Average Record
Temperature  
Mean Temperature 78 °F -  
Max Temperature 82 °F 82 °F 89 °F (1998)
Min Temperature 73 °F 68 °F 66 °F (2008)
Cooling Degree Days 12    
Growing Degree Days 28 (Base 50)    
Moisture  
Dew Point 71 °F    
Average Humidity 81    
Maximum Humidity 96    
Minimum Humidity 59    
Precipitation  
Precipitation 0.03 in 0.14 in - ()
Sea Level Pressure  
Sea Level Pressure 29.93 in    
Wind  
Wind Speed 16 mph ()    
Max Wind Speed 25 mph    
Max Gust Speed 37 mph    
Visibility 6.4 miles    
Events Rain    
Averages and records for this station are not official NWS values.
T = Trace of Precipitation, MM = Missing Value Source: Averaged Metar Reports

Daily Weather History Graph

Daily Weather History Graph

Search for Another Location

Airport or City:

Trip Planner

Search our weather history database for the weather conditions in past years. The results will help you decide how hot, cold, wet, or windy it might be!

Date:

Astronomy

Apr. 30, 2013 Rise Set
Actual Time 6:28 AM AEST 5:59 PM AEST
Civil Twilight 6:06 AM AEST 6:21 PM AEST
Nautical Twilight 5:40 AM AEST 6:47 PM AEST
Astronomical Twilight 5:15 AM AEST 7:12 PM AEST
Moon 10:21 PM AEST (4/30) 10:39 AM AEST (4/30)
Length of Visible Light 12h 14m
Length of Day
11h 30m
Waning Gibbous, 76% of the Moon is Illuminated
Apr 30
Waning Gibbous
May 2
Last Quarter
May 10
New
May 18
First Quarter
May 25
Full

Hourly Weather History & Observations

Time (AEST) Temp. Heat Index Dew Point Humidity Pressure Visibility Wind Dir Wind Speed Gust Speed Precip Events Conditions
12:00 AM 75 °F - 71 °F 85% 29.97 in - South 15.0 mph - -   Overcast
12:00 AM 75.2 °F - 71.6 °F 89% 29.95 in 6.2 mi South 15.0 mph - N/A   Mostly Cloudy
12:30 AM 75.2 °F - 71.6 °F 89% 29.95 in 6.2 mi South 13.8 mph - N/A Rain Light Rain Showers
1:00 AM 74 °F - 72 °F 91% 29.96 in - South 13.8 mph - -  
1:00 AM 75.2 °F - 71.6 °F 89% 29.95 in 3.7 mi South 13.8 mph - N/A Rain Light Rain Showers
1:30 AM 75.2 °F - 71.6 °F 89% 29.92 in 5.0 mi SSE 13.8 mph - N/A Rain Light Rain Showers
1:46 AM 75.2 °F - 71.6 °F 89% 29.92 in 3.7 mi SSE 18.4 mph 31.1 mph N/A Rain Light Rain Showers
2:00 AM 73.4 °F - 71.6 °F 94% 29.92 in 5.0 mi SSE 19.6 mph - N/A   Light Drizzle
2:30 AM 75.2 °F - 71.6 °F 89% 29.92 in 6.2 mi South 12.7 mph - N/A   Mostly Cloudy
2:47 AM 75.2 °F - 71.6 °F 89% 29.92 in 6.2 mi South 12.7 mph - N/A Rain Light Rain Showers
3:00 AM 75 °F - 72 °F 86% 29.92 in - SSE 13.8 mph - -   Overcast
3:00 AM 75.2 °F - 71.6 °F 89% 29.92 in 6.2 mi SSE 13.8 mph - N/A   Mostly Cloudy
3:30 AM 77.0 °F - 71.6 °F 83% 29.92 in 6.2 mi SSE 15.0 mph - N/A   Mostly Cloudy
4:00 AM 76 °F - 71 °F 81% 29.93 in - SSE 16.1 mph - -  
4:00 AM 77.0 °F - 71.6 °F 83% 29.92 in 5.0 mi SSE 16.1 mph - N/A Rain Light Rain Showers
4:30 AM 77.0 °F - 71.6 °F 83% 29.92 in 6.2 mi South 15.0 mph - N/A   Mostly Cloudy
5:00 AM 75.2 °F - 71.6 °F 89% 29.92 in 6.2 mi South 11.5 mph - N/A   Mostly Cloudy
5:30 AM 75.2 °F - 71.6 °F 89% 29.89 in 6.2 mi South 12.7 mph - N/A   Mostly Cloudy
5:47 AM 75.2 °F - 71.6 °F 89% 29.92 in 3.7 mi SSE 15.0 mph - N/A Rain Light Rain Showers
5:52 AM 73.4 °F - 71.6 °F 94% 29.92 in 2.5 mi SSE 17.3 mph 28.8 mph N/A Rain Light Rain Showers
6:00 AM 73.4 °F - 69.8 °F 88% 29.92 in 6.2 mi SSE 21.9 mph - N/A   Mostly Cloudy
6:07 AM 73.4 °F - 69.8 °F 88% 29.92 in 6.2 mi SSE 18.4 mph 29.9 mph N/A   Mostly Cloudy
6:30 AM 75.2 °F - 71.6 °F 89% 29.92 in 6.2 mi SSE 20.7 mph - N/A   Mostly Cloudy
7:00 AM 76 °F - 71 °F 80% 29.95 in - SSE 24.2 mph - -  
7:00 AM 77.0 °F - 71.6 °F 83% 29.95 in 6.2 mi SSE 24.2 mph - N/A   Mostly Cloudy
7:15 AM 75.2 °F - 71.6 °F 89% 29.95 in 2.5 mi SSE 18.4 mph 29.9 mph N/A Rain Light Rain Showers
7:30 AM 75.2 °F - 71.6 °F 89% 29.95 in 6.2 mi South 15.0 mph - N/A   Mostly Cloudy
7:46 AM 75.2 °F - 71.6 °F 89% 29.95 in 6.2 mi South 12.7 mph - N/A Rain Light Rain Showers
8:00 AM 73.4 °F - 71.6 °F 94% 29.95 in 6.2 mi South 13.8 mph - N/A Rain Light Rain Showers
8:16 AM 75.2 °F - 71.6 °F 89% 29.95 in 6.2 mi South 13.8 mph - N/A   Mostly Cloudy
8:30 AM 75.2 °F - 73.4 °F 94% 29.95 in 6.2 mi South 13.8 mph - N/A   Mostly Cloudy
8:45 AM 77.0 °F - 71.6 °F 83% 29.95 in 6.2 mi South 15.0 mph - N/A Rain Light Rain Showers
9:00 AM 74 °F - 73 °F 96% 29.98 in 4 mi SE 18.4 mph - - Rain Light Rain Showers
9:00 AM 75.2 °F - 73.4 °F 94% 29.98 in 3.7 mi SE 18.4 mph - N/A Rain Light Rain Showers
9:25 AM 75.2 °F - 73.4 °F 94% 29.98 in 6.2 mi SSE 16.1 mph - N/A   Mostly Cloudy
9:36 AM 77.0 °F - 73.4 °F 89% 29.98 in 6.2 mi SSE 17.3 mph 29.9 mph N/A   Mostly Cloudy
10:00 AM 77 °F - 72 °F 81% 29.99 in - SSE 24.2 mph - -  
10:00 AM 77.0 °F - 71.6 °F 83% 29.98 in 6.2 mi SSE 24.2 mph - N/A Rain Light Rain Showers
10:27 AM 80.6 °F 84.6 °F 71.6 °F 74% 29.95 in 6.2 mi SE 24.2 mph 36.8 mph N/A   Mostly Cloudy
10:30 AM 80.6 °F 84.6 °F 71.6 °F 74% 29.95 in 6.2 mi SSE 25.3 mph 36.8 mph N/A   Mostly Cloudy
11:00 AM 82.4 °F 88.2 °F 73.4 °F 74% 29.95 in 6.2 mi SE 24.2 mph - N/A   Mostly Cloudy
11:39 AM 80.6 °F 84.6 °F 71.6 °F 74% 29.95 in 6.2 mi SSE 18.4 mph - N/A Rain Light Rain Showers
11:41 AM 78.8 °F - 73.4 °F 83% 29.95 in 6.2 mi SSE 19.6 mph 33.4 mph N/A Rain Light Rain Showers
12:00 PM 78 °F - 73 °F 82% 29.95 in 12 mi SSE 19.6 mph - - Rain Light Rain Showers
12:00 PM 78.8 °F - 73.4 °F 83% 29.95 in 6.2 mi SSE 19.6 mph - N/A   Mostly Cloudy
12:30 PM 78.8 °F - 73.4 °F 83% 29.95 in 6.2 mi South 15.0 mph - N/A   Mostly Cloudy
12:44 PM 82.4 °F 87.2 °F 71.6 °F 70% 29.92 in 6.2 mi SE 21.9 mph - N/A   Mostly Cloudy
1:00 PM 82 °F - 72 °F 63% 29.93 in - SE 25.3 mph - -  
1:00 PM 82.4 °F 87.2 °F 71.6 °F 70% 29.92 in 6.2 mi SE 25.3 mph 36.8 mph N/A   Mostly Cloudy
1:30 PM 80.6 °F 84.6 °F 71.6 °F 74% 29.89 in 6.2 mi SE 24.2 mph - N/A   Mostly Cloudy
2:00 PM 82.4 °F 86.3 °F 69.8 °F 66% 29.89 in 6.2 mi SE 23.0 mph - N/A   Mostly Cloudy
2:11 PM 80.6 °F 84.6 °F 71.6 °F 74% 29.89 in 6.2 mi SSE 21.9 mph 33.4 mph N/A   Mostly Cloudy
2:30 PM 80.6 °F 83.9 °F 69.8 °F 70% 29.89 in 6.2 mi SE 23.0 mph - N/A   Mostly Cloudy
3:00 PM 82 °F - 70 °F 59% 29.90 in 16 mi SE 20.7 mph - -   Partly Cloudy
3:00 PM 82.4 °F 86.3 °F 69.8 °F 66% 29.89 in 6.2 mi SE 20.7 mph - N/A   Mostly Cloudy
3:30 PM 82.4 °F 86.3 °F 69.8 °F 66% 29.89 in 6.2 mi SE 24.2 mph - N/A   Mostly Cloudy
3:44 PM 80.6 °F 84.6 °F 71.6 °F 74% 29.89 in 6.2 mi SSE 18.4 mph 29.9 mph N/A   Mostly Cloudy
4:00 PM 80 °F - 70 °F 65% 29.91 in - SSE 17.3 mph - -  
4:00 PM 80.6 °F 83.9 °F 69.8 °F 70% 29.89 in 6.2 mi SSE 17.3 mph - N/A   Mostly Cloudy
4:30 PM 80.6 °F 83.9 °F 69.8 °F 70% 29.89 in 6.2 mi SSE 18.4 mph - N/A   Mostly Cloudy
5:00 PM 80.6 °F 83.9 °F 69.8 °F 70% 29.89 in 6.2 mi SSE 18.4 mph - N/A   Mostly Cloudy
5:30 PM 78.8 °F - 69.8 °F 74% 29.92 in 6.2 mi SSE 17.3 mph - N/A   Mostly Cloudy
6:00 PM 78 °F - 70 °F 71% 29.93 in 16 mi SSE 15.0 mph - -   Partly Cloudy
6:00 PM 78.8 °F - 69.8 °F 74% 29.92 in 6.2 mi SSE 15.0 mph - N/A   Mostly Cloudy
6:30 PM 78.8 °F - 69.8 °F 74% 29.92 in 6.2 mi SSE 15.0 mph - N/A   Mostly Cloudy
7:00 PM 78 °F - 70 °F 71% 29.95 in - SSE 15.0 mph - -  
7:00 PM 77.0 °F - 69.8 °F 78% 29.92 in 6.2 mi SSE 15.0 mph - N/A   Mostly Cloudy
7:30 PM 77.0 °F - 69.8 °F 78% 29.95 in 6.2 mi South 13.8 mph - N/A   Scattered Clouds
8:00 PM 77.0 °F - 69.8 °F 78% 29.95 in 6.2 mi South 15.0 mph - N/A   Scattered Clouds
8:30 PM 77.0 °F - 69.8 °F 78% 29.95 in 6.2 mi SSE 17.3 mph - N/A   Partly Cloudy
9:00 PM 77 °F - 70 °F 74% 29.96 in 16 mi SSE 15.0 mph - -   Partly Cloudy
9:00 PM 77.0 °F - 69.8 °F 78% 29.95 in 6.2 mi SSE 15.0 mph - N/A   Scattered Clouds
9:30 PM 77.0 °F - 69.8 °F 78% 29.95 in 6.2 mi SSE 15.0 mph - N/A   Partly Cloudy
10:00 PM 77 °F - 70 °F 73% 29.96 in - SSE 15.0 mph - -  
10:00 PM 77.0 °F - 69.8 °F 78% 29.95 in 6.2 mi SSE 15.0 mph - N/A   Partly Cloudy
10:30 PM 77.0 °F - 69.8 °F 78% 29.95 in 6.2 mi SSE 12.7 mph - N/A   Partly Cloudy
11:00 PM 77.0 °F - 69.8 °F 78% 29.95 in 6.2 mi SSE 13.8 mph - N/A   Scattered Clouds
11:30 PM 77.0 °F - 69.8 °F 78% 29.95 in 6.2 mi SSE 15.0 mph - N/A Rain Light Rain Showers